STARLINK-5011 (53925 NORAD) Tracking and Keplerian Element Data

This shows tracking and keplerian element data for the satellite.

Feedback or suggestion? Click here.




ElementValue
Catalog53925
NameSTARLINK-5011
Epoch Orbit945
Epoch Day325.25001157
Epoch Year2022
RAAN329.4951
Inclination53.2138
Eccentricity0.0004133
Argument of Perigee2.665
Mean Anonmoly104.1159
Mean Motion15.73189139
Decay Rate-0.00055007
L11 53925U 22119AR 22325.25001157 -.00055007 00000+0 -39001-3 0 9998
L22 53925 53.2138 329.4951 0004133 2.6650 104.1159 15.73189139 9457



Live tracking and technical data element details for STARLINK-5011 (NORAD 53925). STARLINK-5011 can be tracked NOW for your location showing map with azimuth and elevation plus other details from your city location.







IsCatalogInMostPopularTable: catalog: 53925, numindb: 1
Update: records affected: 1



GetName: 53925 STARLINK-5011

Hit Count: updated at: Fri, 09 Dec 2022 18:38:39 GMT